[[{"header":{"parameterUnit":"m.s-1","parameterCategory":1,"la1":30.2991,"la2":30.254,"lo1":-89.0895,"lo2":-89.0444,"dy":0.0017,"dx":0.0017,"nx":28,"ny":28,"refTime":"2025-08-27T09:00:00:Z","depth":0,"parameterNumber":2,"parameterNumberName":"U-component_of_WINDS"},"data":[0,0,0,0,0,0,0,0,0,0,0,0,0,0,0,0,0,0,0,0,0,0,0,0,0,0,0,0,0,0,0,0,0,0,0,0,0,0,0,0,0,0,0,0,0,0,0,0,0,0,0,0,0,0,0,0,0,0,0.729,0.729,0,0.7288,0.7288,0.7288,0.7284,0.7284,0.7284,0.7284,0.7277,0.7277,0.7277,0,0,0,0,0,0,0,0,0,0,0,0,0,0.729,0.729,0.729,0.729,0.729,0.7288,0.7288,0.7288,0.7284,0.7284,0.7284,0.7284,0.7277,0.7277,0.7277,0,0,0,0,0,0,0,0,0,0,0,0,0,0.7289,0.729,0.729,0.7288,0.7288,0.7288,0.7288,0.7288,0.7284,0.7284,0.7284,0.7284,0.7277,0.7277,0.7277,0.7277,0,0,0.7276,0.7276,0,0,0,0,0,0,0,0,0.7289,0.7289,0.7288,0.7288,0.7288,0.7286,0.7285,0.7284,0.7284,0.7285,0.7284,0.7283,0.728,0.7279,0.7279,0.7277,0.7276,0.7276,0.7276,0.7276,0.7276,0,0,0,0,0,0,0,0.7289,0.7289,0.7289,0.7288,0.7288,0.7287,0.7286,0.7285,0.7283,0.7285,0.7285,0.7285,0.7279,0.7279,0.7279,0.7276,0.7276,0.7276,0.7276,0.7276,0.7277,0.7277,0,0,0,0,0,0,0.729,0.7289,0.7289,0.7289,0.7289,0.7287,0.7287,0.7287,0.7283,0.7282,0.7285,0.7285,0.7279,0.7279,0.7278,0.728,0.7276,0.7276,0.7275,0.7277,0.7277,0.7277,0,0,0,0,0,0,0.729,0.729,0.7289,0.7289,0.7289,0.7287,0.7287,0.7287,0.7286,0.7283,0.7282,0.7285,0.7279,0.7279,0.7278,0.728,0.7275,0.7275,0.7277,0.7277,0.7277,0.7283,0,0,0,0,0,0,0.729,0.729,0.729,0.7289,0.7289,0.729,0.7287,0.7287,0.7286,0.7286,0.7283,0.7282,0.7279,0.7279,0.7278,0.7279,0.7275,0.7277,0.7277,0.7277,0.7282,0.7283,0.7284,0,0,0,0,0,0.729,0.729,0.729,0.729,0.729,0.729,0.729,0.7288,0.7287,0.7287,0.7285,0.7282,0.728,0.7279,0.7278,0.7279,0.7277,0.7277,0.7277,0.7282,0.7283,0.7284,0,0,0,0,0,0,0.7289,0.729,0.729,0.729,0.729,0.7289,0.7289,0.7288,0.7287,0.7287,0.7284,0.7283,0.7283,0.7281,0.728,0.7281,0.7278,0.7278,0.7282,0.7283,0.7283,0.7283,0.7275,0,0,0,0,0,0.729,0.7291,0.7291,0.7291,0.7292,0.7291,0.7291,0.729,0.7289,0.7288,0.7286,0.7285,0.7284,0.7283,0.7282,0.7283,0.7282,0.7284,0.7284,0.7285,0.7285,0.7287,0.7287,0.7279,0.7279,0.7279,0,0,0.7289,0.729,0.729,0.7291,0.7291,0.7292,0.729,0.7291,0.7291,0.7288,0.7288,0.7287,0.7285,0.7286,0.7286,0.7284,0.7288,0.7285,0.7286,0.7285,0.7287,0.7288,0.7289,0.7279,0.7279,0.7279,0,0,0.729,0.729,0.7291,0.7292,0.7293,0.7293,0.7294,0.7294,0.7293,0.7294,0.7292,0.7293,0.7291,0.7291,0.729,0.7294,0.7292,0.7294,0.7297,0.7299,0.7299,0.73,0.7302,0.7303,0.7294,0.7294,0.7294,0,0.7289,0.7291,0.7292,0.7293,0.7294,0.7294,0.7295,0.7296,0.7295,0.7296,0.7295,0.7295,0.7293,0.7295,0.7296,0.7296,0.7296,0.7293,0.73,0.73,0.7301,0.7303,0.7303,0.7294,0.7294,0.7294,0.7294,0,0.729,0.7292,0.7293,0.7296,0.7297,0.7298,0.7299,0.73,0.73,0.73,0.7302,0.7301,0.7301,0.7301,0.73,0.7303,0.7302,0.73,0.7297,0.7302,0.7304,0.7304,0.7295,0.7295,0.7295,0.7295,0,0,0.7287,0.7293,0.7293,0.7295,0.7298,0.7299,0.7301,0.7303,0.7304,0.7305,0.7307,0.7308,0.7307,0.7307,0.7306,0.7307,0.7312,0.7306,0.7306,0.7307,0.7317,0.7318,0.7319,0.7311,0.7312,0.7312,0.7317,0,0.7287,0.7292,0.7295,0.7298,0.73,0.7302,0.7304,0.7306,0.7307,0.7309,0.7309,0.731,0.7309,0.7309,0.7311,0.7311,0.7314,0.7311,0.7312,0.7312,0.7312,0.7319,0.732,0.7325,0.7318,0.7318,0.7318,0,0.7288,0.7291,0.7296,0.7301,0.7302,0.7303,0.7307,0.7309,0.7311,0.7312,0.7314,0.7314,0.7316,0.7315,0.7318,0.7316,0.7317,0.7318,0.7318,0.7317,0.7315,0.7319,0.7326,0.7327,0.7319,0.7319,0.7319,0,0.7285,0.7291,0.7295,0.7297,0.7303,0.7304,0.7306,0.7309,0.7311,0.7314,0.7315,0.7318,0.7319,0.7321,0.7322,0.732,0.7326,0.7324,0.7326,0.7326,0.7326,0.7326,0.7334,0.7328,0.7328,0.7328,0.7328,0,0.7285,0.7288,0.7295,0.7297,0.7301,0.7304,0.7307,0.7309,0.7313,0.7315,0.7317,0.7319,0.7321,0.7323,0.7324,0.7328,0.7328,0.7329,0.7329,0.7328,0.7328,0.7328,0.7327,0.7328,0.7328,0.7328,0.7328,0,0.7282,0.7287,0.7292,0.7298,0.73,0.7302,0.7308,0.731,0.7313,0.7316,0.7317,0.7321,0.7325,0.7327,0.733,0.7331,0.7335,0.7335,0.7334,0.7334,0.7337,0.7337,0.7344,0.7346,0.7339,0.7339,0.734,0,0.7281,0.7284,0.7292,0.7295,0.7298,0.7302,0.7305,0.7309,0.7312,0.7318,0.7319,0.7324,0.7327,0.7333,0.7335,0.7339,0.7339,0.7342,0.7339,0.7339,0.7339,0.7339,0.7339,0.7341,0.7341,0.7341,0.7341,0,0.7279,0.7283,0.7287,0.7294,0.7298,0.7303,0.7307,0.7309,0.7315,0.7318,0.7323,0.7326,0.7332,0.7336,0.7341,0.7342,0.7343,0.7343,0.7344,0.7342,0.7342,0.7343,0.7335,0.7342,0.7342,0.7342,0.7342,0.7342,0.7277,0.7281,0.7288,0.7294,0.7298,0.7303,0.7307,0.7311,0.7316,0.7322,0.7325,0.733,0.7335,0.7341,0.7344,0.7348,0.7347,0.7348,0.7348,0.7348,0.7349,0.7343,0.7349,0.7349,0.7349,0.7349,0.7349,0,0.7276,0.7281,0.7287,0.7295,0.73,0.7303,0.7309,0.7313,0.7318,0.7323,0.7328,0.7335,0.734,0.7344,0.735,0.7352,0.7353,0.7353,0.7353,0.7353,0.7349,0.7348,0.7353,0.7353,0.7353,0.7353,0.7353,0.7353,0.7275,0.7282,0.7286,0.7295,0.73,0.7307,0.7311,0.7316,0.732,0.7328,0.7333,0.7337,0.7343,0.7349,0.7354,0.7355,0.7357,0.7358,0.7359,0.7354,0.7354,0.7353,0.7352,0.7358,0.7358,0.7363,0.7363,0.7363]},{"header":{"parameterUnit":"m.s-1","parameterCategory":1,"la1":30.2991,"la2":30.254,"lo1":-89.0895,"lo2":-89.0444,"dy":0.0017,"dx":0.0017,"nx":28,"ny":28,"refTime":"2025-08-27T09:00:00:Z","depth":0,"parameterNumber":3,"parameterNumberName":"V-component_of_WINDS"},"data":[0,0,0,0,0,0,0,0,0,0,0,0,0,0,0,0,0,0,0,0,0,0,0,0,0,0,0,0,0,0,0,0,0,0,0,0,0,0,0,0,0,0,0,0,0,0,0,0,0,0,0,0,0,0,0,0,0,0,-2.009,-2.009,0,-2.0175,-2.0176,-2.0177,-2.02,-2.02,-2.0199,-2.0199,-2.0283,-2.0286,-2.0288,0,0,0,0,0,0,0,0,0,0,0,0,0,-1.9942,-1.9944,-2.0089,-2.0091,-2.0092,-2.0175,-2.0176,-2.0177,-2.02,-2.02,-2.0199,-2.0199,-2.0282,-2.0285,-2.0289,0,0,0,0,0,0,0,0,0,0,0,0,0,-2.0014,-1.9945,-2.0089,-2.0113,-2.0116,-2.0175,-2.0176,-2.0178,-2.0201,-2.02,-2.0199,-2.0198,-2.0281,-2.0285,-2.0289,-2.0329,0,0,-2.0301,-2.0303,0,0,0,0,0,0,0,0,-2.001,-2.002,-2.0109,-2.0112,-2.0115,-2.0176,-2.0155,-2.0228,-2.0201,-2.0168,-2.0199,-2.0198,-2.0248,-2.0255,-2.0272,-2.0333,-2.0336,-2.0302,-2.0304,-2.0306,-2.0307,0,0,0,0,0,0,0,-2.0005,-2.0016,-2.0123,-2.011,-2.0114,-2.0118,-2.0128,-2.0169,-2.0211,-2.0171,-2.0173,-2.0183,-2.0249,-2.0268,-2.0274,-2.0337,-2.0302,-2.0305,-2.0308,-2.0309,-2.0433,-2.0434,0,0,0,0,0,0,-1.9997,-2.0012,-2.0121,-2.0126,-2.006,-2.0122,-2.0132,-2.0157,-2.0211,-2.0218,-2.0184,-2.0184,-2.0262,-2.027,-2.0277,-2.0326,-2.0306,-2.031,-2.0312,-2.0432,-2.0433,-2.0434,0,0,0,0,0,0,-1.9993,-2.0006,-2.0117,-2.007,-2.0084,-2.0125,-2.0153,-2.016,-2.0178,-2.022,-2.0227,-2.0195,-2.0261,-2.0272,-2.0316,-2.033,-2.0311,-2.0315,-2.0431,-2.0433,-2.0434,-2.0425,0,0,0,0,0,0,-1.9989,-2.0005,-2.0021,-2.007,-2.0086,-2.0155,-2.0154,-2.0162,-2.0186,-2.0187,-2.0233,-2.024,-2.0262,-2.031,-2.032,-2.0335,-2.0318,-2.043,-2.0432,-2.0433,-2.0424,-2.0426,-2.0427,0,0,0,0,0,-1.9984,-2.0015,-2.0022,-2.0035,-2.0108,-2.0156,-2.0165,-2.0191,-2.0187,-2.0203,-2.023,-2.0239,-2.0327,-2.0314,-2.0325,-2.0342,-2.0429,-2.0431,-2.0433,-2.0424,-2.0426,-2.0427,0,0,0,0,0,0,-1.9966,-2.0022,-2.003,-2.0078,-2.0112,-2.016,-2.0181,-2.0192,-2.0227,-2.0226,-2.0255,-2.0265,-2.0307,-2.0329,-2.0314,-2.0383,-2.0378,-2.0382,-2.0367,-2.0369,-2.037,-2.0364,-2.0322,0,0,0,0,0,-1.9968,-2.0003,-2.005,-2.0087,-2.0104,-2.014,-2.0161,-2.0178,-2.0214,-2.0228,-2.0258,-2.0292,-2.0327,-2.0349,-2.0384,-2.0428,-2.0437,-2.0445,-2.0446,-2.0447,-2.045,-2.0474,-2.0478,-2.0441,-2.0441,-2.0441,0,0,-1.9972,-2.0006,-2.0027,-2.0085,-2.0113,-2.0148,-2.0152,-2.0188,-2.0214,-2.0233,-2.0277,-2.03,-2.0339,-2.0383,-2.0404,-2.0402,-2.0463,-2.045,-2.045,-2.0453,-2.0476,-2.048,-2.0483,-2.0442,-2.0442,-2.0442,0,0,-1.9996,-2.0027,-2.0061,-2.009,-2.0133,-2.0156,-2.0164,-2.021,-2.0227,-2.0271,-2.0286,-2.0316,-2.0376,-2.0403,-2.0425,-2.0459,-2.0468,-2.047,-2.0477,-2.05,-2.0503,-2.0505,-2.0516,-2.052,-2.0473,-2.0473,-2.0473,0,-1.9995,-2.0049,-2.0077,-2.0113,-2.0137,-2.0158,-2.0192,-2.0218,-2.0269,-2.0285,-2.0283,-2.0359,-2.0387,-2.0437,-2.0445,-2.0462,-2.0471,-2.0464,-2.05,-2.0503,-2.0506,-2.0517,-2.0521,-2.0472,-2.0472,-2.0472,-2.0472,0,-2.0045,-2.0082,-2.0104,-2.0155,-2.0182,-2.0217,-2.0249,-2.0272,-2.0286,-2.0309,-2.0353,-2.0388,-2.0429,-2.0442,-2.0456,-2.0494,-2.0492,-2.0495,-2.049,-2.0509,-2.0519,-2.0524,-2.0472,-2.0472,-2.0472,-2.0472,0,0,-2.006,-2.0126,-2.0133,-2.0156,-2.0205,-2.0234,-2.0269,-2.0311,-2.033,-2.0365,-2.0394,-2.0444,-2.0447,-2.0472,-2.0489,-2.0509,-2.0532,-2.0509,-2.051,-2.0511,-2.0574,-2.0571,-2.0575,-2.0539,-2.0539,-2.054,-2.057,0,-2.009,-2.0155,-2.0181,-2.0233,-2.0266,-2.0286,-2.0316,-2.0349,-2.0371,-2.0402,-2.0426,-2.0461,-2.0463,-2.0478,-2.0499,-2.0525,-2.0545,-2.0523,-2.0564,-2.0566,-2.0553,-2.0581,-2.0578,-2.0604,-2.0575,-2.0575,-2.0576,0,-2.0133,-2.0169,-2.0225,-2.0269,-2.0284,-2.0311,-2.0351,-2.0381,-2.0418,-2.0432,-2.046,-2.0475,-2.0511,-2.0506,-2.0555,-2.0539,-2.0558,-2.0573,-2.0575,-2.0579,-2.0571,-2.0584,-2.0614,-2.0617,-2.0583,-2.0582,-2.0582,0,-2.0137,-2.02,-2.0241,-2.026,-2.0313,-2.0331,-2.0354,-2.039,-2.0413,-2.0447,-2.0462,-2.05,-2.0521,-2.0549,-2.0574,-2.0567,-2.062,-2.0617,-2.0632,-2.0631,-2.0641,-2.064,-2.0673,-2.0655,-2.0655,-2.0655,-2.0655,0,-2.0167,-2.02,-2.0243,-2.0268,-2.0305,-2.0334,-2.037,-2.0394,-2.0425,-2.0454,-2.0474,-2.05,-2.0532,-2.0562,-2.0582,-2.0619,-2.0628,-2.064,-2.0645,-2.0638,-2.0636,-2.065,-2.0648,-2.0656,-2.0656,-2.0656,-2.0655,0,-2.0177,-2.0208,-2.0254,-2.03,-2.0313,-2.0338,-2.0377,-2.0401,-2.0425,-2.0461,-2.0471,-2.0507,-2.0544,-2.0572,-2.0619,-2.0632,-2.0671,-2.0677,-2.0659,-2.0661,-2.0675,-2.0673,-2.0716,-2.0723,-2.0701,-2.0702,-2.0702,0,-2.0194,-2.022,-2.0269,-2.0291,-2.0313,-2.0347,-2.0371,-2.0401,-2.0424,-2.0468,-2.0487,-2.0525,-2.0557,-2.0614,-2.0644,-2.068,-2.0685,-2.0698,-2.0691,-2.0683,-2.0684,-2.0682,-2.0684,-2.0699,-2.0699,-2.0699,-2.0699,0,-2.0219,-2.0233,-2.0268,-2.0307,-2.0335,-2.0368,-2.04,-2.0416,-2.0451,-2.0476,-2.0515,-2.054,-2.0588,-2.0625,-2.0664,-2.0686,-2.0698,-2.0701,-2.0707,-2.0699,-2.0688,-2.0693,-2.0661,-2.07,-2.07,-2.07,-2.07,-2.07,-2.0233,-2.0256,-2.0295,-2.0332,-2.036,-2.039,-2.0415,-2.0441,-2.0474,-2.0517,-2.0532,-2.057,-2.0606,-2.0659,-2.0681,-2.0711,-2.0712,-2.072,-2.0721,-2.0723,-2.0721,-2.0684,-2.0719,-2.0719,-2.0719,-2.0719,-2.0719,0,-2.0258,-2.0284,-2.0318,-2.0363,-2.0392,-2.0403,-2.0439,-2.0462,-2.0496,-2.0529,-2.056,-2.0603,-2.0639,-2.0672,-2.0709,-2.0727,-2.0733,-2.0735,-2.0734,-2.0738,-2.072,-2.0711,-2.073,-2.073,-2.073,-2.073,-2.073,-2.073,-2.0275,-2.0315,-2.0333,-2.0387,-2.0412,-2.0451,-2.0471,-2.0498,-2.0524,-2.0572,-2.0602,-2.0624,-2.0656,-2.0696,-2.0728,-2.0737,-2.0749,-2.075,-2.076,-2.0741,-2.074,-2.0738,-2.073,-2.0753,-2.0753,-2.0776,-2.0776,-2.0776]}]]